Location: Wanzleben
(52.0609°N, 11.4408°E)
Time: 01:09:19
(UTC+00:00)

ATLAS 2AS CENTAUR R/B - Pass Details

Date: 18 September 2020
Orbit: 939 x 1273 km, 63.7° (Epoch: 19 October)

Event Time Altitude Azimuth Distance (km) Brightness Sun altitude
Rises 21:03:11 0° 219° (SW) 4,207 5.7 -30.4°
Enters shadow 21:04:48 - 219° (SW) 3,655 5.3 -30.5°
Exits shadow 21:11:56 56° 214° (SSW) 1,491 3.2 -31.2°
Maximum altitude 21:13:57 85° 132° (SE) 1,280 2.9 -31.4°
Drops below altitude 10° 21:21:48 10° 46° (NE) 3,208 5.3 -32.0°
Sets 21:24:32 0° 46° (NE) 4,144 5.9 -32.2°
